User: anonymous   Login
Location: Wildcat Hills Observatory
(41.6350°N, 103.6812°W)
Time: 14:24:24
(UTC-06:00)
Language:

Cosmos 1634 Rocket - Orbit

View from above orbital plane
View from above orbital plane
View from above satellite
View from above satellite

Ground track
Ground track

The orbit data is extracted from the following two-line orbital elements,

1 15598U 85022B   15214.55529331  .00000002  00000-0 -13701-4 0  9990
2 15598 082.9355 255.9668 0021311 221.1781 246.8682 13.76529383526278
Epoch (UTC): 02 August 2015 13:19:37
Eccentricity: 0.0021311
inclination: 82.9355°
perigee height: 960 km
apogee height: 992 km
right ascension of ascending node: 255.9668°
argument of perigee: 221.1781°
revolutions per day: 13.76529383
mean anomaly at epoch: 246.8682°
orbit number at epoch: 52627

The dashed part of the orbit path shows where the satellite is in the earth's shadow,  

DLR